Weather History for Dalton, GA

Change the Weather History Date:

Thursday, March 7, 2013

  Actual Average Record
Temperature  
Mean Temperature 40 °F -  
Max Temperature 46 °F 61 °F 83 °F (1956)
Min Temperature 32 °F 35 °F 10 °F (1999)
Degree Days  
Heating Degree Days 26    
Moisture  
Dew Point 31 °F    
Average Humidity 77    
Maximum Humidity 93    
Minimum Humidity 57    
Precipitation  
Precipitation 0.00 in - - ()
Sea Level Pressure  
Sea Level Pressure 30.27 in    
Wind  
Wind Speed 11 mph (NNW)    
Max Wind Speed 18 mph    
Max Gust Speed 25 mph    
Visibility 10 miles    
Events      
Averages and records for this station are not official NWS values.
T = Trace of Precipitation, MM = Missing Value Source: NWS Daily Summary

Daily Weather History Graph

Daily Weather History Graph

Search for Another Location

Airport:

Trip Planner

Search our weather history database for the weather conditions in past years. The results will help you decide how hot, cold, wet, or windy it might be!

Date:

Astronomy

Mar. 07, 2013 Rise Set
Actual Time 7:00 AM EST 6:40 PM EST
Civil Twilight 6:35 AM EST 7:05 PM EST
Nautical Twilight 6:06 AM EST 7:35 PM EST
Astronomical Twilight 5:36 AM EST 8:04 PM EST
Moon 3:50 AM EST (3/7) 2:35 PM EST (3/7)
Length of Visible Light 12h 30m
Length of Day
11h 40m
Waning Crescent, 20% of the Moon is Illuminated
Mar 7
Waning Crescent
Mar 11
New
Mar 19
First Quarter
Mar 27
Full
Apr 3
Last Quarter

Hourly Weather History & Observations

Time (EST) Temp. Windchill Dew Point Humidity Pressure Visibility Wind Dir Wind Speed Gust Speed Precip Events Conditions
12:15 AM 33.8 °F 25.3 °F 30.2 °F 87% 30.22 in 10.0 mi North 11.5 mph 17.3 mph N/A   Overcast
12:35 AM 33.8 °F 26.4 °F 30.2 °F 87% 30.22 in 10.0 mi NNW 9.2 mph 18.4 mph N/A   Overcast
12:55 AM 33.8 °F 24.8 °F 30.2 °F 87% 30.22 in 10.0 mi NNW 12.7 mph 19.6 mph N/A   Overcast
1:15 AM 33.8 °F 25.8 °F 30.2 °F 87% 30.22 in 10.0 mi NNW 10.4 mph - N/A   Overcast
1:35 AM 33.8 °F 24.8 °F 30.2 °F 87% 30.23 in 10.0 mi NNW 12.7 mph - N/A   Overcast
1:55 AM 33.8 °F 27.7 °F 28.4 °F 81% 30.23 in 10.0 mi North 6.9 mph 10.4 mph N/A   Overcast
2:15 AM 33.8 °F 27.7 °F 28.4 °F 81% 30.23 in 10.0 mi North 6.9 mph 16.1 mph N/A   Overcast
2:35 AM 33.8 °F 27.0 °F 30.2 °F 87% 30.23 in 10.0 mi NNW 8.1 mph - N/A   Overcast
2:55 AM 33.8 °F 25.3 °F 30.2 °F 87% 30.24 in 10.0 mi NNW 11.5 mph 16.1 mph N/A   Overcast
3:15 AM 33.8 °F 26.4 °F 30.2 °F 87% 30.24 in 10.0 mi NNW 9.2 mph - N/A   Overcast
3:35 AM 33.8 °F 27.0 °F 30.2 °F 87% 30.24 in 10.0 mi North 8.1 mph - N/A   Overcast
3:55 AM 33.8 °F 26.4 °F 30.2 °F 87% 30.24 in 10.0 mi North 9.2 mph - N/A   Overcast
4:15 AM 33.8 °F 26.4 °F 30.2 °F 87% 30.24 in 10.0 mi North 9.2 mph - N/A   Overcast
4:35 AM 33.8 °F 27.0 °F 30.2 °F 87% 30.23 in 10.0 mi North 8.1 mph - N/A   Overcast
4:55 AM 33.8 °F 25.3 °F 30.2 °F 87% 30.25 in 10.0 mi North 11.5 mph - N/A   Overcast
5:15 AM 33.8 °F 26.4 °F 30.2 °F 87% 30.26 in 10.0 mi NNW 9.2 mph - N/A   Overcast
5:35 AM 33.8 °F 25.3 °F 30.2 °F 87% 30.26 in 10.0 mi NNW 11.5 mph 19.6 mph N/A   Overcast
5:55 AM 33.8 °F 25.3 °F 30.2 °F 87% 30.26 in 10.0 mi NNW 11.5 mph - N/A   Overcast
6:15 AM 33.8 °F 26.4 °F 30.2 °F 87% 30.26 in 10.0 mi North 9.2 mph - N/A   Overcast
6:35 AM 33.8 °F 25.3 °F 30.2 °F 87% 30.25 in 10.0 mi North 11.5 mph 17.3 mph N/A   Overcast
6:55 AM 33.8 °F 25.8 °F 30.2 °F 87% 30.27 in 10.0 mi NNW 10.4 mph - N/A   Overcast
7:15 AM 33.8 °F 25.8 °F 30.2 °F 87% 30.27 in 10.0 mi North 10.4 mph - N/A   Overcast
7:35 AM 33.8 °F 27.0 °F 30.2 °F 87% 30.27 in 10.0 mi North 8.1 mph - N/A   Overcast
7:55 AM 33.8 °F 27.0 °F 30.2 °F 87% 30.28 in 10.0 mi North 8.1 mph - N/A   Overcast
8:15 AM 33.8 °F 25.3 °F 30.2 °F 87% 30.29 in 10.0 mi NNW 11.5 mph 18.4 mph N/A   Overcast
8:35 AM 33.8 °F 24.8 °F 30.2 °F 87% 30.29 in 10.0 mi North 12.7 mph 17.3 mph N/A   Mostly Cloudy
8:55 AM 35.6 °F 26.2 °F 30.2 °F 81% 30.30 in 10.0 mi NNW 15.0 mph 18.4 mph N/A   Scattered Clouds
9:15 AM 35.6 °F 27.1 °F 30.2 °F 81% 30.30 in 10.0 mi North 12.7 mph 18.4 mph N/A   Mostly Cloudy
9:35 AM 37.4 °F 27.8 °F 32.0 °F 81% 30.31 in 10.0 mi NNW 17.3 mph - N/A   Mostly Cloudy
9:55 AM 37.4 °F 28.9 °F 32.0 °F 81% 30.31 in 10.0 mi North 13.8 mph 21.9 mph N/A   Mostly Cloudy
10:15 AM 37.4 °F 28.5 °F 30.2 °F 75% 30.30 in 10.0 mi NNW 15.0 mph 21.9 mph N/A   Scattered Clouds
10:35 AM 37.4 °F 28.5 °F 30.2 °F 75% 30.30 in 10.0 mi NNW 15.0 mph 23.0 mph N/A   Clear
10:55 AM 41.0 °F 34.3 °F 32.0 °F 70% 30.30 in 10.0 mi North 11.5 mph - N/A   Clear
11:15 AM 41.0 °F 33.9 °F 32.0 °F 70% 30.29 in 10.0 mi North 12.7 mph 17.3 mph N/A   Clear
11:35 AM 41.0 °F 32.2 °F 32.0 °F 70% 30.29 in 10.0 mi NNW 18.4 mph 24.2 mph N/A   Clear
11:55 AM 41.0 °F 33.5 °F 32.0 °F 70% 30.29 in 10.0 mi NNW 13.8 mph - N/A   Clear
12:15 PM 42.8 °F 34.8 °F 32.0 °F 66% 30.29 in 10.0 mi NNW 17.3 mph 21.9 mph N/A   Clear
12:35 PM 44.6 °F 38.8 °F 32.0 °F 61% 30.28 in 10.0 mi NNW 11.5 mph 17.3 mph N/A   Clear
12:55 PM 42.8 °F 36.2 °F 32.0 °F 66% 30.28 in 10.0 mi NNW 12.7 mph 17.3 mph N/A   Clear
1:15 PM 44.6 °F 38.8 °F 32.0 °F 61% 30.28 in 10.0 mi NNW 11.5 mph 17.3 mph N/A   Clear
1:35 PM 44.6 °F 39.2 °F 32.0 °F 61% 30.26 in 10.0 mi North 10.4 mph 18.4 mph N/A   Clear
1:55 PM 44.6 °F 39.2 °F 32.0 °F 61% 30.26 in 10.0 mi NW 10.4 mph 18.4 mph N/A   Clear
2:15 PM 46.4 °F 41.5 °F 32.0 °F 57% 30.25 in 10.0 mi NW 10.4 mph 18.4 mph N/A   Clear
2:35 PM 46.4 °F 40.1 °F 32.0 °F 57% 30.25 in 10.0 mi NW 15.0 mph 23.0 mph N/A   Clear
2:55 PM 46.4 °F 41.5 °F 32.0 °F 57% 30.25 in 10.0 mi North 10.4 mph 25.3 mph N/A   Clear
3:15 PM 46.4 °F 40.1 °F 32.0 °F 57% 30.25 in 10.0 mi NNW 15.0 mph 19.6 mph N/A   Clear
3:35 PM 46.4 °F 40.1 °F 32.0 °F 57% 30.25 in 10.0 mi NNW 15.0 mph - N/A   Clear
3:55 PM 46.4 °F 40.1 °F 32.0 °F 57% 30.25 in 10.0 mi NNW 15.0 mph - N/A   Clear
4:15 PM 46.4 °F 40.7 °F 32.0 °F 57% 30.25 in 10.0 mi North 12.7 mph 16.1 mph N/A   Clear
4:35 PM 46.4 °F 40.7 °F 32.0 °F 57% 30.25 in 10.0 mi North 12.7 mph 18.4 mph N/A   Clear
4:55 PM 46.4 °F 41.1 °F 32.0 °F 57% 30.26 in 10.0 mi North 11.5 mph 18.4 mph N/A   Clear
5:15 PM 44.6 °F 38.4 °F 32.0 °F 61% 30.26 in 10.0 mi North 12.7 mph 18.4 mph N/A   Clear
5:35 PM 44.6 °F 39.7 °F 32.0 °F 61% 30.26 in 10.0 mi North 9.2 mph - N/A   Clear
5:55 PM 44.6 °F 39.2 °F 32.0 °F 61% 30.26 in 10.0 mi North 10.4 mph - N/A   Clear
6:15 PM 42.8 °F 38.0 °F 32.0 °F 66% 30.26 in 10.0 mi North 8.1 mph - N/A   Clear
6:35 PM 41.0 °F 35.8 °F 32.0 °F 70% 30.27 in 10.0 mi North 8.1 mph - N/A   Clear
6:55 PM 41.0 °F 36.4 °F 32.0 °F 70% 30.28 in 10.0 mi North 6.9 mph - N/A   Clear
8:35 PM 37.4 °F 30.3 °F 30.2 °F 75% 30.29 in 10.0 mi North 10.4 mph - N/A   Clear
8:55 PM 35.6 °F 29.2 °F 30.2 °F 81% 30.30 in 10.0 mi NNW 8.1 mph - N/A   Clear
9:15 PM 35.6 °F 28.6 °F 30.2 °F 81% 30.30 in 10.0 mi NNW 9.2 mph - N/A   Clear
9:35 PM 35.6 °F 28.0 °F 30.2 °F 81% 30.30 in 10.0 mi North 10.4 mph 17.3 mph N/A   Clear
9:55 PM 35.6 °F 28.6 °F 30.2 °F 81% 30.30 in 10.0 mi North 9.2 mph 17.3 mph N/A   Clear
10:15 PM 33.8 °F 25.8 °F 30.2 °F 87% 30.29 in 10.0 mi North 10.4 mph - N/A   Scattered Clouds
10:35 PM 33.8 °F 26.4 °F 30.2 °F 87% 30.29 in 10.0 mi NNW 9.2 mph - N/A   Clear
10:55 PM 33.8 °F 27.0 °F 30.2 °F 87% 30.29 in 10.0 mi North 8.1 mph - N/A   Clear
11:15 PM 33.8 °F 27.0 °F 30.2 °F 87% 30.28 in 10.0 mi NNW 8.1 mph - N/A   Clear
11:35 PM 33.8 °F 26.4 °F 30.2 °F 87% 30.28 in 10.0 mi NNW 9.2 mph - N/A   Clear
11:55 PM 32.0 °F 23.0 °F 30.2 °F 93% 30.28 in 10.0 mi NNW 11.5 mph 16.1 mph N/A   Scattered Clouds